Location: Makanda
(37.6176°N, 89.2090°W)
Time: 02:00:39
(UTC+00:00)

PSLV R/B - Pass Details

Date: 23 September 2019
Orbit: 595 x 629 km, 97.9° (Epoch: 13 October)

Event Time Altitude Azimuth Distance (km) Brightness Sun altitude
Rises 09:35:37 0° 14° (NNE) 2,915 7.5 -25.9°
Reaches altitude 10° 09:37:50 10° 16° (NNE) 2,000 6.6 -25.5°
Maximum altitude 09:42:12 74° 102° (ESE) 646 3.6 -24.7°
Enters shadow 09:42:34 68° 147° (SSE) 666 3.6 -24.6°
